Weather History for Wautoma, WI

Change the Weather History Date:

Thursday, September 4, 2014

  Actual Average (KPCZ) Record (KPCZ)
Temperature  
Mean Temperature 76 °F -  
Max Temperature 82 °F 76 °F 91 °F (1955)
Min Temperature 69 °F 52 °F 38 °F (1974)
Cooling Degree Days 10    
Growing Degree Days 26 (Base 50)    
Moisture  
Dew Point 68 °F    
Average Humidity 82    
Maximum Humidity 94    
Minimum Humidity 58    
Precipitation  
Precipitation 0.00 in - - ()
Sea Level Pressure  
Sea Level Pressure 29.85 in    
Wind  
Wind Speed 7 mph (SSE)    
Max Wind Speed 21 mph    
Max Gust Speed 30 mph    
Visibility 10 miles    
Events      
Averages and records for this station are not official NWS values.
T = Trace of Precipitation, MM = Missing Value Source: NWS Daily Summary

Daily Weather History Graph

Daily Weather History Graph

Search for Another Location

Airport:

Trip Planner

Search our weather history database for the weather conditions in past years. The results will help you decide how hot, cold, wet, or windy it might be!

Date:

Astronomy

Sep. 04, 2014 Rise Set
Actual Time 6:23 AM CDT 7:27 PM CDT
Civil Twilight 5:54 AM CDT 7:57 PM CDT
Nautical Twilight 5:18 AM CDT 8:32 PM CDT
Astronomical Twilight 4:41 AM CDT 9:09 PM CDT
Moon 4:11 PM CDT (9/4) 1:07 AM CDT (9/4)
Length of Visible Light 14h 02m
Length of Day
13h 03m
Waxing Gibbous, 74% of the Moon is Illuminated
Sep 4
Waxing Gibbous
Sep 8
Full
Sep 15
Last Quarter
Sep 24
New
Oct 1
First Quarter

Hourly Weather History & Observations

Time (CDT) Temp. Heat Index Dew Point Humidity Pressure Visibility Wind Dir Wind Speed Gust Speed Precip Events Conditions
12:56 AM 73.4 °F - 66.2 °F 78% 29.88 in 10.0 mi South 6.9 mph - N/A   Overcast
1:56 AM 72.9 °F - 65.8 °F 79% 29.85 in 10.0 mi South 3.5 mph - N/A   Mostly Cloudy
2:56 AM 72.9 °F - 65.8 °F 79% 29.83 in 10.0 mi Variable 3.5 mph - N/A   Overcast
3:17 AM 71.6 °F - 66.2 °F 83% 29.85 in 10.0 mi Calm Calm - N/A   Overcast
3:38 AM 69.8 °F - 66.2 °F 88% 29.83 in 10.0 mi SSE 5.8 mph - N/A   Scattered Clouds
3:56 AM 70.9 °F - 65.8 °F 84% 29.82 in 10.0 mi South 6.9 mph - N/A   Clear
4:56 AM 70.9 °F - 66.9 °F 87% 29.82 in 10.0 mi SSE 4.6 mph - N/A   Mostly Cloudy
5:56 AM 70.0 °F - 66.9 °F 90% 29.77 in 10.0 mi Calm Calm - N/A   Clear
6:56 AM 71.6 °F - 68.0 °F 88% 29.83 in 10.0 mi South 9.2 mph - N/A   Mostly Cloudy
7:14 AM 71.6 °F - 69.8 °F 94% 29.85 in 6.0 mi SSW 9.2 mph - N/A   Mostly Cloudy
7:56 AM 70.0 °F - 66.9 °F 90% 29.84 in 10.0 mi SSW 10.4 mph - N/A   Mostly Cloudy
8:05 AM 71.6 °F - 66.2 °F 83% 29.86 in 10.0 mi South 8.1 mph - N/A   Mostly Cloudy
8:56 AM 70.9 °F - 65.8 °F 84% 29.83 in 10.0 mi South 10.4 mph - N/A   Overcast
9:56 AM 71.6 °F - 64.4 °F 78% 29.84 in 10.0 mi South 11.5 mph 17.3 mph N/A   Overcast
10:56 AM 74.8 °F - 64.9 °F 71% 29.83 in 10.0 mi South 10.4 mph - N/A   Overcast
11:56 AM 81.9 °F 83.9 °F 65.8 °F 58% 29.83 in 10.0 mi South 20.7 mph 29.9 mph N/A   Mostly Cloudy
12:56 PM 78.8 °F - 68.0 °F 69% 29.89 in 10.0 mi SSW 12.7 mph - N/A   Overcast
1:22 PM 78.8 °F - 68.0 °F 69% 29.88 in 10.0 mi SSW 12.7 mph 21.9 mph N/A   Overcast
1:56 PM 81.0 °F 84.1 °F 68.9 °F 67% 29.84 in 10.0 mi South 9.2 mph - N/A   Overcast
2:56 PM 81.0 °F 84.1 °F 68.9 °F 67% 29.81 in 10.0 mi South 10.4 mph 19.6 mph N/A   Overcast
3:49 PM 82.4 °F 86.3 °F 69.8 °F 66% 29.81 in 10.0 mi South 13.8 mph 17.3 mph N/A   Mostly Cloudy
3:56 PM 82.4 °F 86.3 °F 69.8 °F 66% 29.82 in 10.0 mi South 12.7 mph 17.3 mph N/A   Mostly Cloudy
4:56 PM 79.9 °F - 70.9 °F 74% 29.84 in 10.0 mi West 4.6 mph - N/A   Overcast
5:56 PM 75.9 °F - 72.9 °F 90% 29.86 in 9.0 mi Calm Calm - N/A   Overcast
6:09 PM 75.2 °F - 71.6 °F 89% 29.89 in 10.0 mi NE 3.5 mph - N/A   Overcast
6:18 PM 75.2 °F - 73.4 °F 94% 29.87 in 4.0 mi Calm Calm - N/A   Overcast
6:56 PM 73.4 °F - 71.6 °F 94% 29.87 in 10.0 mi ENE 5.8 mph - N/A   Partly Cloudy
7:25 PM 71.6 °F - 69.8 °F 94% 29.89 in 10.0 mi NNE 20.7 mph 25.3 mph N/A   Mostly Cloudy
7:35 PM 71.6 °F - 66.2 °F 83% 29.88 in 10.0 mi ENE 15.0 mph 25.3 mph N/A   Mostly Cloudy
7:49 PM 71.6 °F - 66.2 °F 83% 29.88 in 10.0 mi ENE 15.0 mph 19.6 mph N/A   Overcast
7:56 PM 70.9 °F - 68.0 °F 91% 29.86 in 10.0 mi ENE 8.1 mph 19.6 mph N/A   Overcast
8:28 PM 71.6 °F - 68.0 °F 88% 29.89 in 10.0 mi East 10.4 mph - N/A   Overcast
8:43 PM 71.6 °F - 69.8 °F 94% 29.89 in 8.0 mi ESE 5.8 mph 16.1 mph N/A   Overcast
8:56 PM 70.9 °F - 68.9 °F 93% 29.87 in 10.0 mi East 8.1 mph - N/A   Overcast
10:56 PM 72.9 °F - 70.0 °F 91% 29.83 in 10.0 mi South 3.5 mph - N/A   Mostly Cloudy
11:56 PM 74.8 °F - 72.0 °F 91% 29.79 in 10.0 mi South 11.5 mph - N/A   Partly Cloudy